Wetbulb
53.96 60.57 64.92 66.22 67.70 68.11 67.81 67.31 67.34 67.65 67.89 66.61 67.02 66.45 65.77 66.98 67.14 68.08 68.75 68.65 68.46 67.67 67.10 66.29 64.94 64.21 63.52 62.66 62.62 62.66 63.32 63.25 64.61 63.88 62.47 62.13 62.95 63.95 63.65 63.22 63.91 64.36 62.92
51.10 52.47 56.43 63.94 67.23 67.68 67.79 67.72 67.68 68.11 68.09 67.97 68.07 68.26 67.48 67.46 68.26 68.20 68.81 69.28 68.70 68.09 67.79 66.18 64.94 64.13 62.62 62.01 62.38 63.24 62.58 62.63 63.08 61.14 59.12 56.96 59.66 60.25 62.30 62.34 62.90 58.94 57.36
51.91 52.73 52.68 61.57 66.51 67.12 67.49 67.59 68.11 68.52 68.52 68.73 68.14 66.74 65.66 65.36 65.58 66.44 67.45 68.50 68.88 68.14 68.04 66.66 65.38 63.87 63.22 62.29 62.09 63.22 62.80 60.84 61.40 61.57 59.69 55.83 55.11 55.51 57.69 58.65 57.45 56.03 53.39
53.28 54.11 53.79 58.38 65.09 66.73 67.95 68.05 68.22 68.90 69.18 69.21 67.81 66.53 66.18 65.04 66.78 67.18 67.67 67.70 67.96 68.15 67.85 66.94 65.55 64.70 63.25 62.04 62.84 63.67 62.21 61.65 60.49 60.73 61.38 59.63 57.75 53.64 52.59 52.13 49.69 51.28 49.82
52.56 53.78 53.94 54.32 63.32 66.57 67.17 67.65 67.81 67.99 69.04 68.80 68.48 66.81 66.20 67.08 67.12 66.57 65.63 66.09 66.95 67.19 66.88 66.92 66.01 64.09 63.73 62.62 63.07 62.71 62.10 61.96 61.18 60.21 58.81 57.68 56.91 55.29 52.52 47.26 46.56 47.85 47.75
51.99 53.32 54.67 55.40 57.61 65.67 66.66 66.98 67.01 67.08 68.33 68.38 68.19 67.11 66.16 65.96 65.78 65.25 64.51 65.27 65.92 66.74 66.26 66.44 66.34 65.45 64.24 63.51 63.74 63.72 63.29 62.72 61.81 60.37 59.62 57.88 55.88 53.89 52.97 50.04 48.14 43.80 44.81
51.74 52.16 52.63 53.26 54.36 61.74 65.34 66.07 66.26 66.01 67.38 67.64 67.55 67.29 66.70 66.34 65.62 65.12 64.71 64.00 64.53 65.79 66.16 66.03 65.57 65.45 64.84 64.49 64.44 63.92 63.29 62.10 61.40 60.43 58.83 56.90 54.57 52.29 50.06 48.28 43.35 42.77 43.14
52.98 51.90 51.86 52.42 53.72 56.00 64.30 65.57 65.84 65.77 66.85 67.12 67.04 67.41 67.01 66.63 66.30 65.37 65.23 64.73 64.61 65.72 66.45 66.12 65.80 65.48 64.68 64.74 64.52 63.40 62.39 61.56 60.81 58.22 52.80 52.05 50.12 49.28 48.35 48.04 43.87 40.56 40.30
50.43 53.24 52.63 52.57 53.04 56.37 63.74 65.50 65.78 66.22 66.42 66.90 67.04 66.87 66.85 66.44 65.93 65.30 65.29 65.00 65.01 65.41 65.66 65.61 65.32 64.13 64.43 64.36 63.16 62.57 60.28 58.29 54.97 51.13 50.89 50.19 47.18 47.22 47.24 46.88 45.31 42.85 38.51
48.93 49.71 51.12 52.49 53.70 56.81 62.62 65.94 66.42 66.22 66.34 66.75 67.02 66.70 66.55 66.44 66.03 65.32 64.37 64.57 64.70 64.67 64.55 64.64 64.57 63.77 63.95 63.27 62.28 58.19 54.85 53.75 52.25 50.08 48.11 47.07 45.57 45.50 45.33 45.21 44.43 43.30 40.77
51.31 49.60 50.91 51.64 52.48 52.15 57.91 64.16 65.83 66.30 66.36 66.42 66.68 66.50 66.25 66.17 65.52 65.03 64.64 64.39 64.32 63.98 63.93 64.49 63.93 63.70 63.04 60.77 59.20 56.88 54.37 53.29 51.39 48.80 47.84 46.55 45.94 44.37 43.03 43.14 42.24 41.48 40.72
53.12 53.68 51.80 50.82 51.13 51.69 52.88 57.50 63.01 65.73 66.49 66.72 66.66 66.28 66.25 65.68 64.98 65.10 64.67 64.53 63.91 64.24 64.33 64.51 64.05 63.71 62.08 59.54 56.50 55.18 54.41 52.28 48.77 49.74 46.09 45.09 44.96 42.42 42.00 41.51 40.61 40.15 39.87
52.17 53.15 52.46 51.83 51.54 52.37 52.69 56.07 57.89 60.30 64.89 66.61 66.46 65.97 65.53 65.33 64.90 64.70 64.39 64.05 64.40 64.55 64.61 64.12 63.51 62.35 59.63 58.39 56.49 54.83 53.56 52.37 50.84 49.54 46.86 44.20 43.43 41.11 40.79 40.98 40.01 39.25 40.00
49.71 50.02 50.70 51.76 52.78 52.43 55.39 54.66 55.27 56.90 56.25 62.74 66.30 65.89 65.35 65.34 65.33 64.98 64.07 63.96 64.51 64.21 64.14 63.78 62.75 59.94 57.71 56.45 55.21 53.70 52.11 50.49 49.26 46.84 44.98 43.80 43.14 41.77 40.90 40.66 38.65 37.78 36.89
46.41 48.23 52.14 53.00 56.85 56.99 57.59 57.84 57.20 57.50 57.70 60.92 65.60 66.04 66.33 65.93 65.42 64.17 63.57 63.82 63.90 63.78 63.01 61.51 59.36 57.18 55.87 54.01 53.28 51.76 50.19 48.11 45.90 43.71 41.97 41.52 41.91 41.59 40.45 39.77 37.80 36.69 34.96
45.67 46.93 47.77 53.45 57.41 58.29 57.89 58.34 57.87 57.53 58.51 59.14 60.56 63.64 65.44 64.88 63.94 63.47 62.94 63.06 62.74 61.61 60.39 58.55 56.88 55.02 55.15 46.42 47.50 49.49 48.60 47.12 43.51 38.92 37.05 38.19 39.97 38.53 37.85 37.55 36.93 37.04 34.75
45.42 45.66 46.99 47.30 53.30 57.48 58.37 57.33 57.45 57.77 58.13 58.68 59.30 59.84 61.66 62.82 62.34 62.51 61.93 61.16 60.32 59.03 57.41 56.33 54.88 54.30 52.28 43.57 44.12 44.61 46.82 43.85 40.13 36.76 34.89 34.77 35.86 34.85 34.06 34.81 35.22 34.73 34.34
45.38 46.03 46.68 46.29 48.87 55.08 56.53 56.17 56.43 55.71 55.60 56.83 57.83 58.88 59.36 59.38 59.90 60.16 60.10 59.26 57.73 56.53 55.27 54.23 54.04 51.46 49.15 44.56 43.45 42.72 43.54 39.41 37.06 36.37 35.71 34.09 31.93 32.89 32.75 32.47 31.98 32.10 32.55
46.37 46.68 46.92 46.94 47.61 51.62 56.09 56.11 54.99 54.28 54.04 54.27 55.84 56.57 58.05 58.39 58.71 58.53 58.17 56.97 55.43 54.83 53.56 51.85 50.05 49.79 46.77 41.81 39.78 41.82 39.67 36.66 35.40 35.53 34.41 33.30 31.57 33.96 35.15 32.35 30.81 30.19 30.77
45.52 45.83 46.79 47.69 47.75 49.57 56.07 54.43 53.63 53.16 52.47 54.08 54.62 56.27 56.15 55.65 56.05 55.77 54.46 53.75 53.49 51.65 49.95 48.67 48.36 44.55 41.74 39.24 38.89 40.28 38.72 35.47 34.61 33.91 33.95 33.15 32.45 33.63 33.39 32.59 31.28 30.32 31.16
44.98 46.74 47.06 46.97 48.28 50.07 55.62 54.04 53.13 52.81 52.74 52.37 52.52 54.65 55.15 55.03 53.66 52.18 51.30 50.78 48.19 46.43 44.88 44.50 44.56 44.75 42.11 40.67 38.72 39.01 38.79 36.71 34.28 33.24 32.07 32.63 33.64 34.35 34.47 33.68 32.31 31.50 31.86
44.19 46.23 45.97 47.14 47.73 49.98 51.13 53.86 53.14 54.11 52.70 51.77 51.51 52.96 53.85 52.75 51.82 50.82 49.82 48.04 45.30 43.04 41.42 41.04 40.06 40.86 41.14 39.00 38.55 38.30 38.19 36.59 35.15 33.55 33.12 33.18 34.56 34.87 34.45 32.84 33.45 32.93 31.98
42.95 45.45 45.41 46.50 48.33 47.87 47.44 46.81 49.60 53.32 51.69 50.73 49.56 52.06 52.59 51.41 51.18 49.54 48.44 45.18 44.67 41.99 40.09 39.80 38.50 37.87 37.09 37.91 37.05 36.42 35.51 34.90 34.41 34.36 33.64 33.72 34.23 33.91 31.77 32.54 32.79 30.99 31.24
42.27 43.87 44.54 44.47 44.60 44.99 45.80 46.32 48.00 53.00 52.01 50.29 48.89 50.09 50.88 49.33 50.04 49.28 47.83 44.08 42.55 39.91 38.14 37.78 36.23 35.37 35.62 35.56 36.35 35.63 35.31 34.00 33.31 32.21 32.17 32.68 32.09 29.64 27.56 29.30 29.18 29.69 31.48
41.57 41.90 42.42 42.76 43.28 44.29 44.79 45.97 48.49 52.42 50.75 49.41 48.42 49.06 49.77 49.16 48.15 48.06 46.84 43.93 44.09 41.74 39.57 38.91 37.43 35.35 34.31 35.17 35.90 35.38 34.10 33.60 32.82 32.27 30.30 29.09 28.83 27.80 25.86 24.02 25.84 25.85 28.76
41.43 40.96 41.06 40.61 42.48 43.02 44.15 46.90 48.94 51.28 50.16 48.22 47.45 47.92 48.06 48.48 47.87 44.54 38.81 37.62 37.91 37.13 37.29 37.35 37.30 36.34 36.00 35.47 35.92 35.64 35.09 33.82 32.33 31.36 28.91 27.26 26.81 26.59 25.71 24.67 27.18 27.76 27.80
MSLP
1000.44 1000.79 1001.11 1001.67 1002.36 1003.16 1004.04 1005.00 1005.98 1006.79 1007.99 1008.80 1009.48 1010.28 1010.51 1011.12 1011.61 1011.91 1012.20 1012.69 1013.11 1013.71 1014.37 1014.63 1015.06 1015.28 1015.93 1016.30 1016.77 1017.26 1017.60 1018.06 1018.29 1018.88 1019.12 1019.23 1019.25 1019.19 1019.23 1019.34 1019.33 1019.47 1020.09
999.64 1000.20 1000.36 1000.93 1001.49 1002.13 1003.03 1004.06 1004.84 1005.85 1006.56 1007.23 1007.99 1009.10 1009.86 1010.50 1011.06 1011.61 1011.88 1012.13 1012.56 1012.98 1013.62 1014.25 1014.66 1015.01 1015.44 1015.90 1016.38 1016.80 1017.55 1018.12 1018.22 1019.05 1019.63 1019.91 1019.93 1019.61 1019.73 1019.81 1020.13 1020.45 1020.65
998.60 998.96 999.65 1000.09 1000.35 1001.21 1001.84 1002.83 1003.72 1004.57 1005.36 1006.07 1007.46 1008.63 1009.65 1010.44 1010.91 1011.04 1011.41 1011.51 1011.80 1012.24 1012.79 1013.53 1014.11 1014.62 1015.06 1015.57 1015.99 1016.51 1017.01 1017.82 1018.28 1018.39 1018.92 1019.86 1020.10 1020.19 1020.54 1020.80 1020.87 1020.99 1021.26
997.58 997.79 998.32 999.16 999.40 999.76 1000.51 1001.39 1002.45 1003.43 1004.29 1005.44 1006.35 1007.05 1007.54 1008.53 1008.79 1009.67 1010.52 1011.01 1011.31 1011.58 1012.07 1012.77 1013.44 1014.15 1014.68 1015.14 1015.52 1015.92 1016.47 1017.04 1017.90 1018.58 1018.68 1018.88 1019.40 1020.17 1021.32 1021.79 1021.97 1021.95 1022.16
996.59 996.87 997.17 997.68 998.20 998.50 999.41 1000.36 1001.29 1002.40 1003.22 1004.04 1004.78 1005.68 1006.49 1006.84 1008.06 1009.07 1009.99 1010.57 1011.09 1011.19 1011.49 1012.03 1012.82 1013.52 1014.08 1014.50 1014.93 1015.51 1015.98 1016.54 1017.28 1017.70 1018.63 1019.05 1019.53 1019.86 1020.75 1022.15 1022.88 1022.96 1023.33
995.75 995.85 995.91 996.19 997.29 997.78 998.38 999.40 1000.34 1001.28 1002.30 1002.95 1003.82 1004.64 1005.10 1006.10 1007.23 1008.12 1008.99 1009.71 1010.35 1010.87 1011.19 1011.46 1012.09 1012.69 1013.32 1013.84 1014.29 1014.83 1015.47 1015.99 1016.40 1017.09 1017.53 1018.13 1019.00 1019.83 1020.54 1021.56 1022.61 1023.17 1024.48
995.04 995.24 995.34 995.61 996.30 996.99 997.55 998.60 999.56 1000.44 1001.28 1002.03 1002.83 1003.51 1004.15 1005.07 1005.60 1006.49 1007.36 1008.71 1009.47 1010.04 1010.15 1010.66 1011.34 1011.87 1012.37 1013.10 1013.83 1014.41 1014.93 1015.49 1016.07 1016.58 1017.14 1017.46 1018.04 1018.61 1019.79 1020.91 1022.27 1023.09 1024.16
994.01 994.45 994.57 994.79 995.18 996.18 996.82 997.49 998.47 999.30 1000.17 1000.92 1001.63 1002.43 1003.05 1004.03 1004.73 1005.58 1006.33 1006.93 1007.84 1008.54 1009.45 1010.03 1010.80 1011.21 1011.77 1012.40 1013.20 1013.97 1014.42 1014.94 1015.50 1016.08 1016.68 1017.28 1017.68 1018.19 1018.84 1020.07 1021.38 1023.28 1023.96
993.33 993.36 993.78 994.08 994.39 995.11 995.70 996.35 997.11 997.84 998.86 999.64 1000.48 1001.45 1002.33 1003.28 1003.87 1004.49 1005.24 1005.85 1006.40 1007.32 1008.34 1009.14 1009.92 1010.71 1011.38 1012.05 1012.72 1013.42 1014.10 1014.74 1015.39 1016.09 1016.90 1017.50 1018.04 1018.20 1018.55 1019.17 1020.07 1021.29 1023.67
993.21 993.14 993.25 993.46 993.60 993.69 994.16 994.95 995.41 996.18 997.26 998.31 999.22 1000.02 1000.88 1001.81 1002.71 1003.72 1004.49 1004.97 1005.44 1006.34 1007.33 1008.31 1009.28 1010.16 1010.92 1011.72 1012.33 1013.19 1013.82 1014.66 1015.41 1016.08 1016.74 1017.34 1018.03 1018.55 1018.96 1019.36 1019.84 1020.64 1022.02
993.02 993.03 992.92 993.18 993.01 993.25 993.74 994.34 994.64 995.27 996.18 997.09 998.04 999.27 1000.37 1001.26 1002.20 1002.81 1003.32 1004.14 1004.99 1005.74 1006.53 1007.29 1008.32 1009.36 1010.40 1011.33 1012.11 1012.81 1013.67 1014.55 1015.33 1016.04 1016.74 1017.56 1017.91 1018.81 1019.35 1019.75 1020.19 1021.01 1021.80
992.05 991.98 992.44 992.59 992.87 992.97 993.08 993.56 994.19 994.70 995.04 995.84 997.05 998.17 999.16 1000.31 1001.25 1001.93 1002.38 1003.44 1004.14 1004.75 1005.61 1006.54 1007.52 1008.60 1009.42 1010.54 1011.58 1012.57 1013.49 1014.13 1015.06 1015.92 1016.65 1017.78 1018.13 1019.04 1019.60 1019.93 1020.62 1021.32 1021.99
992.12 991.07 991.43 991.94 992.17 992.07 992.36 992.61 993.13 993.58 994.22 995.25 996.42 997.47 998.54 999.44 1000.17 1000.97 1001.73 1002.47 1003.38 1004.35 1005.24 1006.31 1006.93 1007.88 1008.83 1009.69 1010.56 1011.77 1013.30 1014.41 1015.20 1015.93 1016.89 1017.72 1018.18 1019.12 1019.76 1020.16 1021.00 1021.80 1022.42
993.52 992.27 992.00 991.86 991.73 991.71 992.08 992.04 992.60 993.03 993.86 994.75 995.56 996.58 997.66 998.48 999.28 999.98 1000.90 1001.78 1002.54 1003.51 1004.41 1005.44 1006.63 1007.46 1008.65 1009.89 1011.08 1011.57 1012.95 1014.69 1015.91 1016.26 1016.74 1017.36 1018.23 1018.85 1019.72 1020.37 1021.14 1022.08 1022.94
995.32 994.52 993.56 992.71 992.20 992.18 992.60 992.45 992.75 993.37 993.79 994.48 995.07 995.82 996.76 997.80 998.86 999.87 1000.61 1001.45 1002.17 1003.09 1004.19 1005.37 1006.34 1007.39 1007.86 1008.83 1010.32 1011.24 1012.95 1014.54 1015.96 1016.94 1017.34 1017.63 1018.40 1019.09 1019.62 1020.36 1021.43 1022.11 1023.12
997.21 995.92 994.75 994.33 993.72 993.24 993.32 993.24 993.34 993.64 994.14 994.88 995.56 995.97 996.74 997.64 998.65 999.44 1000.36 1001.15 1002.08 1003.09 1003.92 1004.96 1005.96 1007.13 1008.09 1008.90 1009.70 1010.42 1012.02 1012.99 1015.52 1016.95 1017.88 1018.20 1018.78 1019.56 1020.08 1020.59 1021.25 1021.66 1022.79
997.73 996.99 996.23 995.81 995.16 993.94 993.88 994.16 994.16 994.22 994.71 995.53 996.22 996.64 997.05 997.68 998.74 999.48 1000.35 1000.96 1001.92 1002.83 1003.85 1004.78 1005.76 1006.72 1007.81 1008.75 1009.25 1010.67 1012.65 1013.58 1014.79 1016.35 1017.69 1018.61 1019.26 1019.76 1020.56 1021.13 1021.53 1022.04 1022.66
998.01 997.73 997.03 996.27 995.64 995.27 994.60 994.76 994.90 994.94 995.18 995.83 996.61 997.05 997.57 998.23 998.89 999.68 1000.32 1001.05 1001.77 1002.44 1003.24 1004.42 1005.38 1006.44 1007.76 1008.59 1009.23 1010.33 1011.93 1013.88 1015.35 1016.36 1017.34 1018.17 1019.44 1019.99 1020.49 1021.36 1022.05 1022.99 1023.57
998.42 998.71 997.51 997.03 995.80 995.59 995.36 994.89 995.45 995.73 995.98 996.51 996.88 997.34 997.65 998.16 998.75 999.58 1000.35 1001.14 1002.15 1003.08 1003.86 1004.42 1005.27 1006.48 1007.99 1009.21 1009.99 1010.44 1012.28 1014.01 1015.22 1016.40 1017.39 1018.12 1019.17 1019.92 1020.22 1021.12 1022.23 1023.50 1024.05
999.42 998.32 997.25 997.76 995.81 995.67 995.53 996.11 995.64 995.81 996.27 996.85 997.16 997.56 998.05 998.37 998.87 999.62 1000.39 1001.44 1002.31 1003.13 1004.00 1005.03 1005.68 1006.73 1007.82 1009.24 1009.63 1010.65 1012.43 1014.30 1015.40 1016.61 1017.49 1018.01 1018.60 1019.37 1019.85 1020.53 1021.82 1023.04 1023.83
998.70 998.74 998.43 997.65 997.16 996.50 995.73 995.88 995.91 996.16 996.53 996.96 997.39 997.89 998.48 998.96 999.45 1000.09 1000.72 1001.70 1002.69 1003.83 1004.74 1005.57 1006.37 1007.06 1007.83 1009.18 1009.45 1010.32 1011.79 1013.38 1015.06 1016.11 1017.37 1017.90 1018.43 1019.09 1019.73 1020.44 1021.29 1021.95 1023.11
996.79 997.67 998.63 998.15 997.61 997.27 996.34 996.50 996.34 995.77 996.35 997.05 997.48 998.09 998.84 999.50 999.93 1000.44 1001.35 1002.17 1003.13 1003.88 1005.24 1006.21 1007.03 1007.93 1008.41 1009.27 1010.16 1010.36 1011.44 1013.04 1014.00 1015.38 1016.48 1017.50 1018.44 1019.16 1019.93 1020.46 1021.26 1022.04 1023.11
996.57 996.77 997.06 997.44 997.36 996.96 997.14 996.90 996.35 996.15 996.69 997.23 997.73 998.20 998.99 999.47 1000.03 1000.85 1001.65 1002.46 1003.23 1004.24 1005.07 1005.83 1006.86 1007.90 1008.70 1009.20 1010.26 1011.11 1011.87 1013.15 1014.60 1015.49 1016.21 1017.09 1018.24 1019.33 1020.43 1020.61 1021.27 1022.03 1022.98
996.45 996.78 996.97 997.03 997.53 996.65 997.19 997.15 996.62 996.24 996.83 997.38 997.68 998.10 998.86 999.48 1000.05 1000.96 1001.64 1002.47 1003.25 1004.07 1004.80 1005.52 1006.70 1007.89 1009.15 1009.81 1010.82 1011.21 1012.45 1013.44 1014.44 1015.66 1017.26 1018.14 1019.01 1019.91 1020.47 1021.12 1021.49 1021.86 1022.54
996.78 996.63 996.71 996.85 997.23 997.57 997.52 997.16 996.71 996.29 996.81 997.70 997.99 998.40 998.88 999.41 1000.09 1000.63 1001.14 1001.94 1002.47 1002.83 1003.72 1004.64 1005.56 1006.64 1008.30 1008.97 1009.56 1010.99 1012.22 1013.67 1014.64 1015.90 1017.43 1018.57 1019.68 1020.46 1021.00 1021.52 1021.70 1022.00 1022.34
996.86 996.80 996.76 997.06 996.98 996.82 996.82 996.76 996.83 996.19 997.01 997.73 998.12 998.54 999.02 999.31 999.97 1000.84 1001.70 1002.11 1002.45 1002.84 1003.45 1004.24 1005.03 1006.35 1007.26 1009.15 1010.90 1011.75 1012.34 1013.37 1015.25 1016.29 1017.43 1018.52 1019.45 1020.08 1020.84 1021.32 1021.74 1022.01 1022.02
Wind_Speed
16 19 18 21 22 21 22 22 20 20 15 13 13 12 13 11 10 10 14 14 12 11 10 8 8 7 9 7 7 4 4 2 3 3 2 2 3 2 3 1 2 2 6
10 12 18 19 22 23 23 22 23 22 20 15 14 10 10 9 9 8 10 14 14 12 11 9 8 8 5 6 6 5 3 2 3 4 2 1 4 3 3 2 4 5 7
15 14 14 20 24 24 24 24 24 24 22 21 12 6 4 4 4 8 10 13 15 14 14 9 8 7 7 7 6 6 7 5 2 2 5 2 4 2 4 6 5 6 7
15 17 16 18 25 26 23 26 25 24 22 21 18 19 16 13 13 11 9 11 13 15 14 11 9 9 6 7 8 6 5 5 5 2 2 3 3 4 3 4 5 5 7
18 20 17 18 24 26 23 23 25 24 23 23 22 19 18 15 10 8 10 11 11 13 13 13 12 10 8 7 9 7 6 4 5 4 3 2 2 3 4 3 2 4 5
17 18 20 19 19 22 23 22 25 25 24 24 23 24 24 18 13 13 11 11 8 10 12 13 14 13 10 10 9 8 10 7 5 4 4 5 5 4 4 3 2 4 5
16 18 17 15 14 23 24 21 23 24 24 25 24 24 23 21 22 17 14 13 11 10 15 15 14 12 11 10 9 9 8 8 7 7 5 4 4 4 4 4 3 4 3
19 17 17 15 16 16 22 24 25 25 25 25 25 22 23 15 14 16 13 13 13 13 13 14 13 14 12 10 10 7 7 9 7 8 5 4 4 4 4 6 6 3 2
12 16 13 12 14 17 24 26 27 27 26 27 24 22 20 19 18 19 16 14 14 12 14 15 14 11 12 12 11 9 8 7 5 8 8 5 3 4 4 4 4 6 5
8 9 8 11 14 19 23 26 28 30 28 27 24 22 23 22 19 15 18 17 16 15 14 15 14 13 13 12 12 8 7 9 6 7 10 6 4 5 4 4 4 3 5
12 9 9 9 11 9 16 21 24 27 26 25 24 21 19 19 17 16 17 16 14 15 16 17 16 15 14 12 11 11 12 12 10 8 10 7 8 6 5 4 4 4 4
22 18 10 10 9 11 13 19 20 22 23 24 23 22 19 17 18 17 17 15 17 17 17 17 17 16 16 15 14 13 12 14 13 12 12 10 8 7 6 4 6 5 4
17 20 13 13 12 13 13 18 19 20 19 20 22 19 17 17 19 18 17 16 16 16 15 16 17 17 16 16 16 15 13 11 12 12 11 11 11 8 5 7 7 5 4
16 7 5 4 6 7 8 10 10 14 11 16 21 20 18 19 18 19 16 17 18 18 17 16 15 15 14 13 12 14 14 10 7 7 10 11 11 11 10 8 9 6 6
21 19 8 5 3 6 6 7 7 7 8 14 18 20 19 18 15 14 14 15 16 15 14 14 14 15 17 15 18 15 14 13 11 6 6 7 8 11 9 9 8 9 5
17 16 18 9 4 6 6 7 8 8 9 8 8 10 14 15 15 15 15 16 15 14 14 15 15 14 10 12 18 21 18 18 14 11 7 8 14 12 14 14 10 9 10
15 19 15 11 9 3 5 6 7 7 10 10 8 7 8 12 13 14 15 16 15 15 15 14 15 15 12 21 25 21 13 14 14 14 12 8 7 12 11 14 15 12 10
15 17 17 13 8 5 4 5 5 6 7 8 8 9 9 8 9 12 13 13 13 16 16 16 16 14 14 26 28 25 18 13 12 13 13 13 10 10 13 11 11 8 6
13 13 15 16 15 4 2 6 5 5 6 6 7 6 9 11 12 13 13 12 12 11 11 13 16 16 15 17 20 20 14 14 14 12 11 13 12 16 21 14 13 9 5
1 14 16 20 16 11 4 3 5 6 7 6 7 7 8 9 10 10 11 9 10 12 10 10 11 16 20 25 25 22 12 14 11 10 10 16 15 21 20 15 14 12 10
9 3 10 13 17 13 4 6 5 7 4 6 6 6 6 8 10 10 10 10 10 10 9 11 10 14 18 18 26 26 14 13 11 11 10 8 21 21 18 16 12 12 13
5 13 6 7 8 12 8 4 6 2 7 7 8 8 7 6 7 11 10 11 12 14 11 11 9 8 12 19 18 22 18 18 14 13 10 10 20 18 17 13 12 17 12
3 2 7 8 3 2 6 7 8 5 7 7 7 8 8 8 9 10 11 9 11 10 11 11 11 10 7 11 20 18 21 16 10 7 12 21 20 16 10 13 16 14 8
5 4 4 3 4 6 4 5 7 1 6 6 8 9 9 9 10 8 9 9 9 9 10 11 11 10 9 10 12 12 13 17 12 14 12 12 10 7 5 7 8 6 7
7 5 5 6 7 5 6 5 5 5 5 5 6 7 7 10 9 8 9 9 10 13 15 12 13 16 13 12 9 14 12 9 13 14 10 9 8 7 5 3 4 4 5
6 7 7 5 7 8 6 2 1 6 6 5 5 7 7 8 8 7 4 6 5 9 8 13 14 8 17 22 18 19 20 21 21 11 11 9 9 9 8 8 7 5 6
Wind_Direction
210 208 199 187 191 186 183 183 181 179 174 180 178 185 192 193 197 195 192 196 196 188 189 198 193 179 180 178 175 162 166 146 148 93 30 325 286 258 276 34 338 60 71
214 193 207 186 188 187 187 185 185 179 185 184 186 188 191 199 196 187 191 195 195 186 187 187 192 186 167 178 172 154 118 125 156 126 96 27 312 337 21 55 92 79 92
216 222 190 191 189 189 188 187 185 184 187 189 177 152 118 113 163 184 191 193 192 187 194 186 183 185 183 184 175 164 158 149 181 187 144 118 230 88 5 35 61 78 81
223 221 207 188 190 194 189 186 186 185 187 183 182 183 186 186 201 194 194 194 194 191 188 187 187 190 189 180 184 171 163 138 147 90 63 82 140 143 92 33 29 52 76
218 224 216 190 193 194 189 189 188 185 184 183 187 187 190 200 182 188 178 192 194 199 197 194 189 190 190 187 182 171 157 166 152 148 151 119 72 76 129 143 147 62 33
215 214 214 207 190 197 193 187 188 190 187 186 188 191 196 191 186 183 184 193 193 198 199 196 201 196 191 185 191 182 172 178 152 152 157 158 158 173 157 126 117 129 44
210 214 213 213 189 194 195 189 188 191 191 190 190 193 198 192 194 188 185 178 191 200 205 194 196 199 191 185 177 175 178 163 163 164 178 152 158 136 119 120 138 136 159
209 202 207 202 204 187 195 186 189 192 191 190 193 194 199 194 195 191 190 191 192 198 197 198 199 200 188 172 172 171 168 166 165 156 125 132 146 144 143 148 142 93 110
217 225 214 206 200 186 190 190 190 194 190 192 193 195 196 194 193 192 191 195 192 189 189 190 192 187 177 174 167 170 165 148 133 135 136 142 126 119 124 132 138 144 154
231 239 231 212 207 197 193 195 190 190 192 194 193 195 193 194 194 186 192 193 192 181 175 178 180 174 172 169 165 150 138 138 143 144 137 133 127 109 105 116 118 102 129
249 234 232 217 212 190 195 201 195 194 196 193 193 193 194 194 190 192 193 191 184 180 178 179 173 172 167 162 156 154 152 153 151 148 142 136 132 124 112 109 104 102 99
250 245 231 229 212 213 192 192 195 201 198 194 190 190 191 186 186 192 188 183 186 183 180 175 174 176 168 163 160 157 167 161 157 160 141 141 124 117 132 116 106 108 96
286 263 243 225 223 219 193 197 195 197 193 188 189 187 182 183 186 186 184 181 178 181 177 179 180 180 176 167 162 153 157 161 157 155 152 147 137 136 136 122 113 102 97
351 248 134 181 214 180 186 182 185 185 168 177 185 185 180 184 186 187 178 177 178 174 179 179 180 168 163 154 156 149 141 140 144 141 144 145 152 147 139 128 124 121 108
356 0 359 9 35 77 109 108 109 121 148 167 175 184 187 186 180 175 175 177 179 181 175 167 165 168 162 157 153 144 139 135 135 126 121 121 123 123 136 137 136 129 108
345 349 4 350 36 74 67 81 89 91 96 106 143 170 175 173 172 172 176 174 177 171 162 168 166 168 173 150 158 151 155 148 150 136 111 109 112 110 111 114 118 133 137
336 343 347 344 326 112 124 106 105 103 102 104 97 106 140 163 169 168 168 168 169 159 164 169 164 166 160 154 147 140 146 144 144 140 137 123 119 115 112 102 102 98 97
341 337 341 342 348 303 79 102 94 94 103 111 127 135 141 139 142 157 169 165 164 168 163 167 166 157 158 157 147 145 142 140 140 143 144 136 139 139 129 116 103 91 99
345 325 331 322 337 360 284 126 122 122 119 141 139 142 153 158 160 167 168 164 159 163 168 163 155 158 154 150 135 128 127 131 134 139 141 143 139 146 136 128 123 127 117
96 328 332 325 341 334 136 266 167 156 162 166 155 149 150 147 155 153 151 150 154 151 146 151 155 154 145 151 139 137 135 139 139 135 140 149 149 152 147 140 147 144 155
168 192 300 311 330 328 215 192 165 217 151 133 134 142 153 154 145 133 135 132 126 127 134 137 141 154 154 159 147 145 148 149 147 150 156 159 158 157 149 149 157 159 151
201 154 224 257 290 340 346 322 256 158 148 152 153 148 147 144 145 142 142 139 145 138 139 137 129 145 149 152 151 145 145 153 154 161 158 155 160 159 161 152 151 142 148
260 124 182 225 276 38 12 340 317 188 160 156 152 149 147 144 150 151 153 143 150 152 156 153 153 150 161 146 149 136 136 137 140 142 153 151 150 144 149 146 149 146 155
256 191 150 52 325 334 345 314 319 145 156 165 158 153 155 152 154 158 161 156 162 159 160 158 157 149 151 155 155 143 138 125 118 120 127 140 131 119 121 132 144 154 168
312 290 196 195 192 240 294 301 331 154 161 164 154 163 161 165 164 169 173 176 183 176 170 176 165 160 168 173 157 154 139 139 137 126 124 134 145 150 143 127 144 152 160
306 314 314 244 214 186 211 220 294 170 153 153 161 172 172 172 170 159 110 48 150 140 119 143 159 148 132 133 132 134 130 135 141 141 151 157 164 169 169 169 170 177 172